User: anonymous   Login
Location: *
(44.1392°N, 4.8079°E)
Time: 07:15:41
(UTC+00:00)
Language:

deb Meteor - Orbit

View from above orbital plane
View from above orbital plane
View from above satellite
View from above satellite

Ground track
Ground track

The orbit data is extracted from the following two-line orbital elements,

1 20348U 72049C   22028.75925927  .00000074  00000-0  40255-4 0  9990
2 20348  81.2408 158.5159 0048794 177.5278 182.6139 14.01744273533762
Epoch (UTC): 28 January 2022 18:13:20
Eccentricity: 0.0048794
inclination: 81.2408°
perigee height: 852 km
apogee height: 923 km
right ascension of ascending node: 158.5159°
argument of perigee: 177.5278°
revolutions per day: 14.01744273
mean anomaly at epoch: 182.6139°
orbit number at epoch: 53376

The dashed part of the orbit path shows where the satellite is in the earth's shadow,  

DLR